Temp
-24 -24 -24 -24 -25 -25 -24 -24 -24 -24 -24 -24 -24 -24 -24 -24 -25 -25 -26 -26 -27 -26 -26 -25 -23 -21 -20 -21 -21 -18 -18 -17 -17 -17 -17 -17 -16 -16 -15 -14 -14 -14 -14 -14 -14 -14 -13 -13 -13 -13 -13 -14 -14 -14
-24 -24 -24 -24 -25 -25 -24 -24 -24 -24 -24 -24 -24 -24 -24 -24 -25 -26 -26 -26 -26 -26 -26 -24 -24 -22 -20 -20 -20 -20 -19 -18 -17 -17 -17 -17 -17 -16 -15 -15 -14 -15 -15 -14 -14 -14 -14 -14 -14 -14 -14 -14 -14 -14
-25 -24 -24 -25 -25 -25 -25 -24 -24 -24 -24 -24 -24 -24 -24 -24 -25 -25 -26 -26 -26 -26 -26 -25 -24 -23 -22 -21 -21 -21 -20 -18 -17 -17 -17 -17 -17 -16 -16 -16 -16 -15 -15 -15 -15 -14 -14 -14 -14 -15 -14 -14 -15 -15
-25 -24 -24 -24 -25 -25 -25 -25 -25 -25 -25 -24 -24 -24 -25 -25 -25 -25 -25 -26 -26 -26 -26 -25 -25 -23 -23 -22 -21 -21 -20 -19 -19 -18 -18 -17 -17 -17 -17 -17 -16 -16 -16 -15 -15 -15 -15 -15 -15 -15 -15 -15 -15 -16
-26 -25 -24 -24 -25 -25 -25 -25 -25 -25 -25 -25 -25 -24 -25 -25 -25 -25 -25 -25 -25 -25 -25 -25 -25 -24 -23 -22 -21 -20 -19 -19 -19 -19 -19 -18 -18 -18 -17 -17 -16 -16 -16 -16 -16 -16 -16 -15 -15 -15 -15 -15 -15 -16
-26 -25 -25 -24 -25 -25 -25 -25 -25 -25 -25 -25 -25 -25 -25 -25 -24 -25 -24 -25 -25 -25 -25 -25 -24 -24 -23 -23 -22 -22 -21 -20 -19 -20 -19 -19 -18 -18 -18 -17 -16 -17 -17 -17 -16 -17 -17 -16 -16 -16 -15 -16 -16 -16
-26 -26 -25 -25 -25 -25 -26 -25 -25 -25 -25 -25 -25 -25 -25 -25 -25 -25 -25 -25 -25 -26 -25 -25 -25 -24 -23 -23 -23 -22 -22 -21 -21 -20 -20 -20 -19 -19 -18 -17 -17 -17 -17 -17 -16 -16 -16 -16 -16 -16 -16 -16 -17 -17
-26 -27 -26 -25 -25 -26 -26 -26 -25 -25 -25 -25 -25 -25 -26 -26 -26 -26 -25 -25 -26 -26 -26 -26 -25 -24 -24 -22 -22 -22 -21 -21 -20 -20 -21 -20 -20 -20 -19 -18 -17 -17 -17 -17 -17 -17 -17 -17 -17 -17 -17 -17 -18 -17
-26 -27 -26 -25 -25 -25 -26 -26 -26 -26 -26 -26 -26 -26 -26 -26 -26 -26 -26 -26 -26 -26 -25 -25 -25 -24 -24 -23 -22 -22 -21 -21 -21 -21 -21 -21 -20 -20 -19 -19 -19 -19 -19 -18 -18 -18 -17 -17 -18 -18 -18 -18 -18 -18
-27 -27 -27 -26 -25 -25 -26 -26 -27 -27 -27 -27 -26 -26 -26 -26 -26 -26 -26 -26 -27 -26 -26 -26 -25 -24 -25 -23 -24 -22 -22 -22 -22 -21 -21 -21 -20 -20 -20 -19 -19 -19 -18 -18 -19 -19 -19 -19 -18 -18 -18 -18 -18 -19
-27 -27 -27 -27 -26 -26 -26 -26 -26 -26 -27 -26 -27 -26 -26 -26 -26 -26 -26 -26 -26 -26 -26 -26 -26 -25 -25 -25 -24 -23 -23 -23 -22 -22 -21 -21 -20 -20 -20 -19 -20 -20 -20 -20 -20 -19 -19 -19 -18 -19 -19 -19 -19 -20
-27 -28 -28 -27 -27 -26 -26 -26 -26 -26 -27 -27 -27 -27 -27 -27 -27 -26 -26 -26 -26 -26 -26 -25 -25 -25 -25 -24 -24 -24 -23 -23 -23 -23 -22 -21 -20 -21 -20 -20 -20 -20 -20 -20 -20 -20 -19 -19 -20 -20 -20 -20 -20 -20
-27 -28 -28 -28 -27 -27 -26 -27 -26 -26 -26 -27 -27 -27 -27 -27 -26 -26 -25 -25 -25 -25 -26 -26 -25 -25 -25 -24 -24 -23 -24 -23 -23 -22 -21 -21 -22 -21 -21 -20 -20 -21 -21 -20 -20 -20 -20 -20 -21 -21 -21 -21 -21 -22
-27 -28 -28 -28 -28 -28 -27 -26 -26 -26 -27 -27 -26 -26 -27 -26 -26 -26 -25 -25 -25 -25 -25 -25 -25 -25 -24 -24 -24 -24 -24 -24 -23 -23 -22 -22 -22 -22 -22 -22 -21 -21 -21 -21 -21 -21 -21 -21 -21 -22 -22 -23 -23 -23
-28 -28 -28 -29 -29 -28 -28 -28 -27 -27 -27 -26 -26 -26 -26 -26 -26 -25 -25 -25 -25 -25 -25 -24 -25 -25 -25 -24 -24 -24 -24 -23 -23 -23 -23 -22 -22 -22 -22 -21 -21 -22 -22 -22 -22 -22 -22 -22 -23 -23 -24 -24 -25 -26
-28 -28 -28 -29 -29 -29 -28 -28 -28 -27 -27 -27 -27 -27 -27 -27 -26 -26 -25 -25 -24 -24 -23 -24 -24 -24 -24 -24 -24 -24 -24 -23 -23 -23 -23 -23 -23 -23 -23 -23 -23 -22 -23 -23 -23 -24 -24 -24 -24 -25 -26 -27 -28 -28
-28 -28 -28 -28 -29 -29 -29 -28 -28 -28 -28 -28 -28 -27 -27 -27 -26 -26 -26 -26 -25 -25 -24 -24 -24 -24 -23 -23 -23 -24 -24 -24 -24 -24 -24 -24 -23 -23 -23 -23 -23 -24 -24 -24 -25 -25 -25 -26 -27 -27 -28 -29 -29 -29
-28 -28 -28 -28 -29 -29 -28 -28 -28 -28 -28 -28 -28 -28 -27 -27 -27 -27 -26 -26 -26 -26 -26 -26 -25 -25 -25 -25 -25 -25 -25 -25 -25 -25 -25 -24 -24 -24 -24 -24 -24 -25 -25 -26 -26 -27 -28 -28 -29 -29 -29 -30 -30 -30
-28 -28 -28 -28 -28 -28 -28 -28 -28 -28 -28 -28 -28 -28 -28 -28 -27 -27 -27 -26 -26 -26 -26 -26 -26 -26 -26 -26 -26 -26 -25 -25 -26 -26 -26 -26 -26 -26 -26 -26 -26 -27 -28 -28 -28 -29 -29 -29 -29 -30 -30 -30 -30 -30
-28 -28 -28 -28 -28 -28 -28 -28 -28 -28 -28 -28 -28 -28 -28 -28 -28 -28 -27 -27 -27 -27 -27 -27 -27 -27 -27 -27 -27 -27 -27 -27 -27 -27 -27 -27 -27 -27 -28 -28 -28 -28 -29 -29 -29 -29 -29 -30 -30 -30 -30 -30 -30 -29
-28 -28 -28 -28 -28 -28 -28 -28 -28 -28 -28 -28 -28 -28 -28 -28 -28 -28 -28 -28 -28 -28 -28 -28 -28 -28 -28 -28 -28 -28 -28 -28 -28 -28 -28 -28 -28 -29 -29 -29 -29 -29 -29 -29 -30 -30 -30 -30 -30 -30 -29 -29 -29 -29
-28 -28 -28 -28 -28 -28 -28 -28 -28 -28 -28 -28 -28 -28 -28 -28 -28 -28 -28 -28 -28 -28 -28 -28 -28 -28 -28 -28 -28 -28 -28 -28 -28 -29 -29 -29 -29 -29 -29 -29 -29 -29 -29 -29 -29 -29 -29 -29 -29 -29 -29 -29 -29 -29
-28 -28 -28 -28 -28 -28 -28 -28 -28 -28 -28 -28 -28 -28 -28 -28 -28 -28 -29 -29 -29 -28 -28 -28 -28 -28 -28 -28 -28 -29 -29 -29 -29 -29 -29 -29 -29 -29 -29 -29 -29 -29 -29 -29 -29 -28 -29 -29 -29 -29 -29 -29 -29 -30
-28 -28 -28 -28 -27 -28 -28 -28 -28 -28 -28 -28 -28 -28 -28 -28 -28 -28 -28 -28 -28 -28 -28 -28 -28 -28 -28 -28 -28 -28 -28 -29 -29 -28 -29 -29 -29 -29 -28 -28 -28 -28 -28 -28 -28 -28 -28 -29 -29 -29 -29 -29 -29 -30
-28 -28 -27 -27 -27 -27 -28 -27 -27 -27 -28 -28 -28 -28 -28 -28 -28 -28 -28 -28 -28 -28 -28 -28 -28 -28 -28 -28 -28 -28 -28 -28 -28 -28 -28 -28 -28 -28 -28 -28 -28 -28 -28 -28 -28 -29 -29 -29 -29 -29 -29 -30 -30 -30
-28 -28 -27 -27 -28 -27 -27 -27 -27 -27 -27 -27 -27 -28 -28 -28 -28 -28 -28 -28 -28 -28 -28 -28 -28 -28 -27 -27 -27 -27 -27 -27 -27 -27 -28 -28 -28 -28 -28 -28 -28 -28 -28 -28 -28 -29 -29 -29 -29 -30 -30 -30 -30 -30
-28 -28 -28 -28 -28 -28 -28 -27 -27 -27 -27 -27 -27 -27 -27 -27 -27 -27 -27 -27 -27 -27 -27 -27 -27 -27 -27 -27 -27 -27 -27 -27 -27 -27 -28 -28 -27 -27 -28 -28 -28 -28 -28 -29 -29 -29 -29 -29 -30 -30 -30 -30 -31 -31
-29 -29 -29 -29 -28 -28 -28 -28 -28 -28 -28 -28 -27 -27 -27 -27 -27 -27 -27 -27 -27 -27 -27 -27 -27 -27 -27 -27 -27 -27 -27 -27 -27 -27 -27 -27 -27 -27 -28 -28 -28 -28 -28 -29 -29 -30 -30 -30 -30 -31 -31 -31 -31 -32
-29 -29 -29 -28 -28 -28 -28 -28 -27 -27 -27 -27 -27 -27 -27 -28 -28 -28 -28 -28 -28 -28 -28 -28 -28 -28 -28 -28 -28 -28 -28 -28 -28 -28 -28 -28 -28 -28 -28 -28 -29 -29 -29 -29 -30 -30 -30 -31 -31 -31 -32 -32 -32 -33
-29 -29 -28 -28 -28 -28 -28 -27 -27 -27 -27 -27 -28 -28 -28 -28 -28 -28 -28 -28 -28 -28 -28 -28 -28 -28 -28 -28 -28 -28 -28 -28 -28 -28 -28 -28 -28 -29 -29 -29 -29 -30 -30 -30 -30 -31 -31 -31 -32 -32 -32 -33 -33 -33
-29 -29 -28 -28 -28 -28 -28 -28 -27 -27 -28 -28 -28 -28 -28 -28 -28 -29 -29 -29 -29 -28 -28 -28 -28 -28 -28 -28 -28 -28 -28 -28 -28 -28 -28 -29 -29 -29 -29 -30 -30 -30 -30 -30 -31 -31 -32 -32 -32 -32 -33 -33 -34 -34
-29 -29 -28 -28 -28 -28 -28 -28 -28 -28 -28 -28 -28 -28 -29 -29 -29 -29 -28 -29 -29 -29 -29 -29 -29 -29 -29 -29 -29 -29 -29 -29 -29 -29 -29 -29 -29 -29 -30 -30 -30 -31 -31 -31 -31 -32 -32 -32 -33 -33 -33 -34 -35 -36
-29 -29 -29 -28 -28 -28 -28 -28 -28 -28 -28 -29 -29 -29 -29 -29 -29 -29 -29 -29 -29 -29 -29 -29 -29 -29 -29 -29 -29 -29 -29 -29 -29 -29 -29 -29 -30 -30 -30 -31 -31 -31 -31 -31 -32 -32 -32 -33 -33 -34 -35 -36 -36 -37
Height
5305 5300 5295 5290 5286 5281 5275 5269 5270 5276 5281 5286 5292 5299 5308 5318 5328 5336 5343 5348 5353 5357 5365 5375 5386 5401 5413 5425 5438 5453 5472 5476 5486 5495 5501 5506 5510 5518 5525 5534 5542 5549 5553 5557 5561 5564 5572 5577 5581 5584 5593 5592 5593 5594
5301 5296 5293 5288 5285 5282 5278 5273 5273 5279 5284 5290 5296 5304 5311 5319 5326 5333 5340 5346 5349 5352 5361 5370 5385 5393 5405 5418 5433 5445 5459 5470 5479 5485 5491 5497 5503 5508 5517 5523 5531 5537 5541 5546 5551 5556 5562 5565 5570 5573 5576 5577 5579 5580
5297 5293 5291 5286 5284 5284 5281 5277 5276 5280 5287 5293 5299 5305 5310 5318 5325 5333 5339 5344 5348 5351 5357 5364 5374 5390 5399 5409 5423 5434 5445 5456 5465 5477 5485 5489 5493 5501 5507 5513 5518 5522 5528 5534 5538 5547 5551 5554 5557 5560 5565 5567 5567 5568
5293 5291 5289 5286 5285 5286 5285 5283 5280 5283 5287 5294 5301 5308 5313 5318 5326 5333 5338 5344 5348 5352 5355 5361 5367 5379 5392 5403 5412 5422 5433 5447 5457 5465 5471 5477 5485 5491 5497 5502 5506 5514 5518 5526 5529 5536 5539 5541 5544 5548 5551 5553 5553 5553
5291 5289 5288 5286 5286 5287 5288 5288 5288 5287 5290 5295 5301 5309 5316 5320 5327 5333 5338 5343 5347 5352 5353 5358 5361 5370 5382 5395 5404 5414 5426 5435 5442 5449 5454 5464 5473 5481 5485 5489 5498 5508 5514 5516 5521 5523 5524 5529 5532 5537 5539 5539 5541 5542
5288 5287 5286 5286 5286 5288 5290 5291 5293 5294 5295 5298 5303 5309 5315 5322 5329 5335 5339 5341 5345 5350 5353 5354 5360 5368 5378 5388 5398 5407 5414 5422 5430 5438 5446 5453 5462 5468 5470 5479 5492 5497 5502 5505 5510 5512 5516 5520 5523 5526 5526 5526 5527 5528
5286 5284 5285 5285 5285 5288 5290 5293 5295 5297 5299 5303 5307 5311 5315 5320 5326 5329 5335 5340 5344 5348 5349 5351 5356 5363 5374 5382 5390 5399 5409 5418 5426 5431 5434 5443 5450 5455 5460 5471 5481 5484 5487 5492 5497 5502 5505 5509 5511 5512 5512 5512 5514 5515
5282 5282 5282 5283 5284 5285 5288 5292 5295 5298 5301 5305 5309 5312 5315 5319 5324 5328 5333 5337 5340 5344 5347 5347 5350 5359 5367 5374 5382 5392 5403 5410 5414 5420 5426 5434 5442 5445 5452 5466 5470 5472 5475 5480 5484 5488 5492 5494 5496 5497 5498 5499 5500 5500
5279 5280 5280 5280 5282 5283 5285 5289 5292 5296 5300 5304 5308 5310 5314 5318 5322 5327 5330 5334 5336 5340 5343 5346 5346 5354 5361 5367 5376 5384 5392 5398 5405 5411 5418 5427 5431 5437 5448 5454 5459 5463 5468 5470 5472 5475 5479 5482 5483 5485 5486 5486 5486 5486
5275 5276 5278 5278 5279 5281 5283 5285 5289 5293 5296 5300 5304 5307 5311 5315 5320 5323 5325 5328 5332 5334 5339 5345 5349 5351 5356 5362 5368 5374 5379 5385 5394 5401 5408 5416 5424 5432 5439 5443 5448 5453 5456 5459 5462 5465 5468 5469 5471 5472 5474 5473 5473 5474
5272 5273 5274 5276 5277 5279 5281 5283 5287 5291 5294 5297 5301 5304 5307 5312 5317 5320 5322 5326 5328 5331 5336 5341 5345 5350 5354 5360 5366 5370 5375 5382 5387 5395 5401 5407 5417 5425 5429 5434 5438 5440 5443 5446 5449 5454 5458 5459 5460 5461 5462 5462 5463 5463
5269 5270 5271 5274 5275 5278 5280 5282 5284 5287 5291 5294 5298 5303 5304 5308 5314 5317 5318 5322 5325 5328 5331 5336 5342 5347 5352 5360 5363 5368 5371 5377 5380 5389 5393 5401 5412 5415 5419 5423 5426 5430 5433 5438 5441 5443 5446 5447 5449 5449 5450 5450 5450 5450
5265 5267 5269 5271 5274 5275 5278 5280 5282 5285 5288 5292 5296 5300 5302 5306 5309 5311 5315 5320 5322 5323 5328 5334 5339 5344 5349 5354 5359 5361 5364 5367 5373 5378 5387 5398 5402 5404 5408 5412 5416 5420 5425 5427 5430 5432 5433 5434 5434 5435 5436 5436 5434 5433
5262 5264 5266 5269 5271 5274 5276 5277 5279 5283 5286 5289 5292 5296 5300 5301 5304 5308 5313 5316 5319 5320 5324 5330 5336 5341 5347 5352 5356 5359 5361 5364 5368 5377 5384 5388 5391 5394 5399 5404 5407 5410 5413 5415 5418 5420 5421 5422 5422 5422 5421 5421 5420 5419
5259 5262 5264 5267 5269 5272 5275 5277 5279 5280 5283 5287 5290 5293 5295 5298 5301 5304 5309 5313 5316 5317 5323 5329 5333 5338 5341 5346 5350 5354 5357 5359 5364 5371 5376 5379 5383 5387 5391 5394 5396 5399 5401 5403 5405 5407 5408 5409 5409 5409 5409 5408 5407 5407
5257 5260 5262 5265 5268 5271 5273 5275 5278 5280 5282 5286 5289 5292 5293 5297 5299 5301 5304 5307 5311 5317 5321 5326 5329 5333 5337 5342 5346 5350 5354 5357 5362 5366 5370 5373 5377 5380 5383 5385 5387 5390 5392 5393 5393 5394 5395 5396 5397 5398 5397 5397 5397 5397
5255 5258 5261 5264 5267 5269 5272 5275 5277 5279 5282 5285 5288 5290 5294 5295 5298 5300 5302 5305 5308 5313 5317 5322 5326 5329 5334 5337 5340 5344 5349 5353 5356 5359 5361 5364 5367 5369 5372 5375 5378 5380 5382 5383 5384 5385 5386 5386 5386 5386 5387 5387 5386 5385
5253 5257 5260 5263 5266 5269 5271 5274 5276 5278 5280 5283 5286 5288 5291 5293 5296 5298 5301 5304 5308 5311 5314 5318 5322 5325 5329 5333 5337 5340 5343 5346 5349 5352 5355 5358 5361 5363 5366 5369 5371 5372 5373 5374 5375 5375 5376 5376 5377 5378 5378 5377 5376 5376
5252 5255 5259 5262 5265 5268 5271 5274 5276 5277 5279 5281 5282 5285 5288 5290 5293 5297 5300 5302 5305 5308 5312 5315 5319 5322 5325 5327 5331 5334 5338 5341 5344 5347 5349 5352 5355 5357 5360 5361 5363 5364 5365 5367 5368 5368 5369 5369 5369 5369 5369 5368 5366 5365
5250 5254 5258 5261 5265 5268 5271 5273 5275 5277 5278 5279 5280 5282 5284 5287 5290 5293 5296 5299 5303 5306 5310 5313 5316 5319 5322 5324 5327 5331 5333 5336 5339 5341 5343 5345 5347 5349 5351 5353 5355 5357 5359 5360 5361 5361 5361 5361 5361 5360 5358 5357 5354 5352
5249 5254 5258 5262 5265 5269 5271 5273 5275 5276 5277 5279 5279 5281 5283 5285 5288 5291 5294 5297 5301 5304 5307 5310 5312 5315 5317 5320 5323 5326 5329 5331 5334 5336 5339 5341 5343 5345 5347 5349 5351 5352 5353 5353 5353 5353 5353 5352 5351 5349 5347 5344 5341 5337
5248 5253 5258 5262 5266 5269 5273 5275 5277 5279 5280 5281 5282 5283 5285 5287 5289 5291 5293 5296 5298 5300 5303 5305 5307 5311 5314 5317 5320 5323 5325 5328 5330 5332 5334 5336 5339 5341 5343 5344 5345 5346 5346 5347 5346 5345 5344 5343 5340 5338 5335 5331 5328 5324
5247 5251 5256 5261 5265 5269 5273 5275 5278 5281 5283 5284 5286 5287 5288 5290 5292 5294 5296 5298 5300 5302 5304 5306 5307 5309 5312 5315 5317 5320 5323 5325 5327 5329 5331 5334 5336 5337 5338 5340 5340 5340 5340 5339 5338 5336 5334 5332 5329 5325 5322 5318 5314 5309
5245 5250 5254 5259 5263 5267 5271 5275 5278 5281 5283 5285 5287 5289 5291 5293 5295 5297 5298 5300 5303 5304 5306 5308 5310 5312 5314 5316 5318 5320 5322 5324 5326 5327 5329 5330 5332 5333 5334 5334 5333 5333 5332 5330 5329 5327 5324 5320 5317 5313 5308 5303 5298 5292
5243 5247 5253 5257 5262 5266 5270 5273 5277 5279 5282 5284 5287 5289 5291 5293 5295 5297 5299 5301 5303 5305 5306 5308 5310 5312 5314 5316 5318 5319 5321 5322 5323 5324 5325 5326 5327 5327 5327 5326 5326 5325 5323 5321 5318 5315 5311 5307 5302 5297 5292 5286 5280 5275
5240 5246 5252 5256 5260 5264 5268 5272 5275 5278 5280 5283 5285 5287 5289 5291 5294 5296 5298 5300 5302 5303 5305 5306 5308 5310 5312 5314 5315 5317 5318 5319 5319 5320 5320 5320 5320 5320 5319 5318 5317 5315 5312 5309 5306 5302 5298 5293 5288 5283 5277 5271 5265 5258
5238 5244 5249 5254 5258 5263 5266 5270 5273 5276 5278 5281 5283 5285 5287 5290 5292 5294 5296 5298 5299 5301 5303 5304 5306 5308 5309 5311 5312 5313 5313 5314 5314 5314 5314 5313 5312 5312 5311 5309 5307 5305 5302 5298 5294 5290 5286 5280 5275 5269 5261 5254 5246 5239
5237 5241 5246 5251 5255 5259 5263 5267 5270 5273 5275 5278 5281 5283 5285 5288 5290 5292 5294 5295 5297 5298 5299 5300 5302 5303 5304 5305 5306 5306 5307 5307 5307 5307 5307 5306 5305 5304 5303 5300 5298 5295 5292 5288 5284 5278 5273 5266 5260 5253 5246 5238 5228 5218
5234 5239 5244 5248 5252 5256 5259 5263 5267 5271 5273 5276 5279 5281 5283 5285 5287 5289 5291 5292 5294 5295 5296 5297 5298 5299 5300 5301 5301 5302 5302 5302 5302 5301 5301 5300 5298 5297 5295 5292 5290 5286 5282 5277 5272 5266 5259 5252 5245 5237 5229 5220 5211 5201
5232 5237 5242 5245 5249 5253 5258 5262 5265 5269 5272 5275 5277 5279 5281 5283 5285 5287 5288 5289 5291 5292 5293 5293 5294 5295 5296 5296 5296 5296 5296 5296 5296 5295 5294 5293 5292 5290 5287 5284 5281 5276 5271 5265 5259 5252 5245 5237 5229 5221 5211 5200 5190 5180
5230 5235 5240 5244 5249 5253 5256 5260 5264 5267 5270 5273 5276 5278 5280 5281 5283 5284 5285 5286 5287 5288 5289 5290 5291 5291 5292 5292 5292 5292 5291 5291 5290 5289 5288 5286 5284 5281 5278 5274 5270 5264 5259 5252 5245 5238 5229 5220 5211 5200 5189 5179 5169 5161
5231 5235 5239 5243 5247 5251 5255 5259 5262 5266 5269 5272 5274 5275 5277 5278 5279 5281 5281 5282 5283 5284 5285 5286 5286 5287 5287 5287 5286 5286 5286 5285 5284 5283 5282 5279 5276 5273 5269 5265 5259 5253 5246 5239 5231 5222 5213 5202 5192 5181 5170 5161 5153 5148
5228 5233 5237 5242 5247 5251 5254 5257 5260 5263 5266 5268 5270 5271 5273 5274 5275 5276 5277 5278 5280 5280 5281 5282 5282 5282 5282 5281 5281 5281 5280 5279 5278 5277 5274 5272 5268 5264 5259 5253 5247 5240 5232 5224 5215 5205 5195 5184 5173 5163 5155 5149 5144 5141
Wind_Speed
22 17 17 16 14 19 8 6 15 20 23 22 22 27 31 35 36 35 33 31 35 34 33 34 49 65 72 77 86 80 56 62 57 56 52 49 58 64 65 67 63 62 61 60 58 54 56 58 58 60 57 57 56 54
18 14 16 15 8 10 10 2 9 28 28 25 23 29 22 22 29 32 28 21 27 39 41 32 46 52 66 68 73 79 79 77 64 56 56 47 48 54 59 62 63 63 62 60 61 60 55 57 61 63 62 61 60 58
15 11 12 10 2 4 6 7 10 26 31 29 26 32 20 20 20 21 25 21 19 31 44 51 57 50 56 58 62 62 78 80 67 54 52 50 48 46 46 51 52 58 59 60 60 61 65 65 63 58 55 58 57 56
13 8 9 3 3 3 5 9 11 19 26 30 35 28 36 31 25 26 20 17 18 20 31 51 60 55 54 61 61 58 57 62 64 68 73 64 50 49 47 45 45 42 45 47 50 54 54 55 54 52 48 49 50 48
10 6 3 3 10 4 9 9 10 15 23 28 39 41 37 32 26 29 30 24 22 22 26 44 48 63 60 58 61 63 65 65 61 62 64 63 66 64 54 51 47 40 37 38 34 35 41 45 46 45 46 49 51 48
8 4 4 2 14 12 10 10 16 16 17 24 30 38 40 41 32 34 44 35 28 23 27 31 44 48 58 61 60 57 59 61 65 69 69 66 71 61 61 61 56 56 56 51 47 46 44 43 42 41 42 48 52 49
6 4 9 8 11 19 10 16 18 18 12 16 20 23 29 38 34 33 34 30 27 21 31 31 49 59 43 43 55 57 50 49 47 48 51 55 56 58 62 65 61 57 56 55 56 57 53 46 45 46 46 47 45 42
6 5 9 11 11 14 20 21 22 20 24 25 20 21 23 24 24 28 20 31 26 30 28 33 37 46 41 41 47 50 52 49 54 49 45 49 47 48 52 49 47 44 46 42 39 40 43 46 46 44 42 39 38 43
8 6 9 14 12 15 19 23 25 23 27 26 22 23 30 30 29 30 28 26 32 37 42 37 39 42 48 42 39 39 42 44 46 44 47 46 43 43 35 32 35 38 40 41 41 42 41 39 34 33 35 42 45 46
10 7 8 15 13 17 18 21 24 21 24 25 32 31 32 30 30 26 25 30 28 30 30 39 33 40 47 52 44 46 39 43 47 49 42 39 35 34 33 37 36 36 39 33 30 29 29 31 37 41 42 46 46 44
11 10 10 10 17 18 18 20 24 27 25 28 27 22 28 34 30 27 26 30 29 25 30 28 34 34 31 47 56 47 48 42 43 45 39 35 32 33 37 41 38 34 31 31 31 32 36 40 38 40 44 46 47 48
12 12 13 12 11 20 20 19 21 22 22 16 20 19 23 30 30 25 24 24 24 25 29 30 34 37 25 34 32 38 42 46 46 40 37 38 39 42 43 45 45 42 38 34 35 38 42 42 43 43 45 49 52 54
13 14 14 16 14 12 21 22 21 22 25 26 23 19 25 28 25 26 26 28 17 21 19 20 33 32 23 22 19 20 29 36 45 47 42 42 40 39 38 47 52 49 42 42 46 44 45 45 46 46 48 50 48 45
13 14 16 15 16 15 13 14 15 17 18 23 26 28 29 27 25 28 24 24 15 14 13 19 27 33 24 16 18 18 24 30 40 49 43 38 41 36 37 36 35 38 40 42 44 45 44 44 44 43 42 41 42 43
14 15 16 17 16 14 16 18 17 15 13 13 13 16 19 21 22 22 21 21 18 16 18 27 34 31 26 21 20 16 18 17 23 28 30 29 29 31 31 33 35 37 36 36 37 38 38 38 38 38 38 39 38 35
15 16 17 17 17 16 15 16 19 21 20 20 18 17 16 14 15 16 15 16 17 25 28 29 26 23 21 21 21 20 19 18 19 21 23 23 23 23 24 25 26 28 29 31 31 32 34 36 37 37 36 35 33 34
17 17 17 16 16 16 16 16 14 16 17 19 20 20 18 16 15 16 16 17 13 17 22 22 23 26 25 24 22 23 24 24 24 23 22 23 23 23 25 26 27 29 30 30 32 33 33 32 32 32 33 33 34 35
20 19 18 17 15 14 13 14 14 15 15 16 17 19 18 19 17 15 14 14 15 15 16 18 18 20 19 20 20 22 22 23 23 24 24 25 25 27 29 30 30 30 30 29 27 25 25 25 25 26 27 28 30 34
23 21 20 18 16 14 12 11 11 10 10 12 15 19 20 19 19 19 19 19 18 17 18 20 20 20 21 21 21 22 24 25 25 25 25 26 26 27 27 26 24 23 22 21 21 21 22 22 24 27 30 33 36 38
26 24 21 19 16 14 12 11 10 10 9 9 12 16 20 22 22 20 20 22 24 23 22 21 21 21 21 22 22 23 23 23 24 23 24 23 21 19 18 17 18 18 19 20 21 22 24 26 29 31 34 37 41 43
29 26 23 22 20 17 15 12 12 11 10 10 10 12 15 19 21 22 23 24 23 22 22 22 21 21 20 20 20 19 19 19 18 18 18 17 16 16 16 17 18 20 21 22 23 24 26 30 33 37 40 42 43 44
31 29 27 25 24 21 19 17 17 16 15 13 13 13 14 15 15 15 14 13 13 14 14 16 18 19 20 20 20 20 19 18 17 17 16 16 17 18 18 17 17 18 20 23 26 29 32 35 36 38 41 43 45 47
33 31 30 28 26 24 21 19 15 13 13 14 14 14 13 14 14 14 17 15 14 11 10 8 8 8 9 11 14 14 13 13 13 15 17 18 17 17 17 18 20 21 24 26 28 30 33 35 38 41 44 46 49 53
33 31 29 28 24 22 20 18 14 12 11 11 11 12 13 14 14 14 15 14 13 11 9 8 8 8 8 8 8 8 7 7 8 9 10 11 13 14 15 18 20 23 26 29 32 35 38 41 44 47 51 55 58 61
33 32 30 26 23 21 19 16 14 12 11 10 9 9 9 8 8 9 9 8 9 9 9 8 8 8 7 6 6 5 4 5 7 8 10 12 15 17 20 23 26 29 32 35 38 41 43 45 47 48 48 48 49 53
32 30 27 25 23 21 20 18 16 15 13 11 10 9 9 9 7 6 6 5 4 4 4 5 5 4 5 5 6 8 9 10 12 14 16 18 20 23 26 28 30 32 34 35 36 37 38 40 42 45 50 55 59 60
32 29 26 24 23 21 20 19 18 16 16 15 14 14 13 10 9 9 8 7 8 8 9 9 10 11 12 12 13 14 16 17 19 20 21 22 22 23 23 25 27 29 30 31 34 37 41 46 50 53 54 55 58 61
28 28 27 26 25 24 22 21 20 20 19 18 17 16 15 12 12 12 12 11 11 11 11 11 11 11 11 12 13 15 16 17 18 17 17 18 19 21 24 25 26 27 30 34 38 43 46 47 50 53 55 59 63 66
26 24 25 26 25 24 24 23 20 20 21 19 17 15 15 15 13 11 12 13 13 13 13 14 15 15 14 15 15 15 15 15 16 16 16 18 20 22 24 25 28 31 34 37 40 43 46 51 52 55 60 63 66 67
26 25 25 25 25 23 21 19 20 20 18 17 16 15 14 13 13 12 12 12 12 12 13 14 15 14 13 14 15 15 16 16 16 17 18 20 21 23 26 29 31 34 37 41 44 48 52 54 58 62 66 67 67 67
27 26 24 23 22 21 19 19 19 19 19 17 16 16 16 16 16 15 16 17 17 16 16 16 16 16 16 17 18 19 19 19 19 19 20 21 24 27 31 33 36 39 43 46 50 53 56 60 65 68 69 68 63 54
24 24 23 22 22 21 20 18 18 18 17 15 15 16 16 17 17 18 19 19 19 18 17 18 18 19 21 22 22 21 20 20 19 21 23 26 29 32 36 39 41 45 48 51 55 58 63 67 69 69 64 54 44 34
27 26 24 22 20 19 19 18 18 16 14 14 14 14 14 15 17 19 18 18 17 17 17 17 18 19 20 21 20 20 19 19 21 23 27 31 34 38 40 42 46 49 52 56 60 65 67 68 65 55 45 35 26 22
Wind_Direction
321 317 324 323 323 337 339 343 203 189 172 168 168 169 176 190 194 195 198 202 195 183 180 190 197 202 208 213 215 203 207 213 217 217 219 224 227 227 229 229 228 229 231 232 235 240 243 246 250 253 259 263 264 261
320 318 320 329 321 328 358 14 169 180 178 176 171 171 188 192 191 191 197 194 194 182 182 168 193 199 207 213 219 223 223 224 221 225 223 222 227 228 231 234 234 233 234 235 237 239 241 243 245 250 254 257 262 264
321 319 326 333 316 346 40 49 155 179 190 180 194 189 184 186 172 178 193 193 193 194 191 183 185 191 199 208 211 218 217 217 216 215 223 227 227 225 226 228 230 234 237 239 241 242 240 242 246 252 258 259 263 266
316 317 337 0 166 151 119 84 106 162 178 185 185 185 199 186 200 194 173 203 207 208 205 193 186 188 197 201 204 211 215 217 221 229 235 230 231 228 230 233 232 235 239 242 246 246 249 252 255 257 260 259 257 258
308 325 315 30 160 177 140 125 110 127 171 178 184 189 192 196 207 208 202 228 222 213 212 200 195 194 195 200 207 208 209 212 218 223 227 232 234 242 235 236 234 240 244 242 244 247 247 248 251 255 254 254 252 252
294 320 198 168 170 182 197 164 165 129 130 150 170 185 196 199 196 200 202 216 222 228 221 223 197 196 193 199 202 209 213 217 223 230 232 233 232 237 242 241 242 249 250 248 249 258 262 261 264 264 260 253 249 249
268 282 184 184 183 182 189 173 162 167 163 161 169 170 177 189 195 192 205 219 220 219 222 220 210 190 187 197 208 212 212 215 225 229 234 235 234 237 244 247 248 252 255 255 258 261 266 266 263 262 258 250 250 257
282 259 197 188 183 187 188 187 187 188 164 168 190 196 192 189 193 194 223 228 208 202 210 229 228 214 196 193 186 201 206 210 217 216 223 224 225 236 240 243 247 247 249 249 249 256 256 253 252 245 248 256 264 259
284 221 212 195 189 189 194 203 200 202 198 190 190 200 199 197 200 201 213 218 214 219 219 222 226 223 210 192 187 189 200 209 216 225 233 232 232 229 222 234 243 245 243 249 245 241 236 233 245 259 257 254 251 249
254 245 195 192 188 185 193 196 204 196 195 197 204 197 193 207 207 206 216 220 227 233 230 215 217 227 221 210 213 202 198 204 211 210 207 215 223 230 239 217 227 217 219 223 240 256 258 255 248 249 245 242 246 250
234 226 216 191 181 185 182 182 190 196 209 198 200 214 217 211 206 217 228 222 230 220 226 226 213 215 220 225 218 212 204 206 210 205 215 213 214 226 227 217 230 258 267 271 270 260 249 245 245 243 244 249 254 260
219 213 204 208 190 176 184 185 188 188 193 196 200 200 178 195 210 213 216 215 226 226 217 215 214 208 197 211 223 231 239 238 241 226 233 235 234 238 246 243 253 262 267 257 254 242 239 242 248 253 255 258 261 262
209 204 199 201 197 202 178 169 172 178 188 192 202 207 192 197 214 209 211 217 225 216 189 194 210 210 220 219 220 232 237 243 243 238 229 225 236 242 247 250 253 254 253 240 238 241 242 249 257 261 263 262 266 272
201 197 192 200 201 191 201 196 171 166 174 184 194 208 214 222 221 214 221 214 205 187 199 202 213 216 222 217 230 249 242 233 226 224 236 243 251 245 241 238 236 237 241 242 244 252 258 262 263 264 268 271 273 273
194 191 188 194 198 200 191 194 210 218 209 202 197 198 206 216 221 225 219 223 223 237 206 202 215 223 237 239 234 242 226 221 213 220 225 231 237 241 239 239 241 246 250 254 256 258 260 264 269 271 270 268 269 269
187 184 181 187 192 195 200 199 194 202 206 214 220 224 227 218 228 229 222 214 201 197 205 216 220 221 224 225 231 229 234 236 229 230 238 241 243 246 248 247 249 252 256 260 263 265 267 268 267 265 263 262 261 262
179 175 173 174 183 190 196 203 204 206 206 203 201 212 220 218 209 200 197 200 204 197 199 204 214 218 229 234 234 232 232 234 239 244 243 242 245 251 256 260 260 260 261 262 262 262 259 256 255 256 258 262 268 272
174 168 165 163 167 172 178 189 198 205 208 208 213 216 218 223 222 218 218 214 203 197 204 203 206 211 218 219 219 224 228 233 237 241 243 244 247 249 251 255 258 260 261 261 259 258 259 260 263 266 267 268 272 275
172 169 166 163 163 165 168 175 181 184 190 201 210 210 215 217 221 225 223 224 224 217 211 213 214 213 214 218 222 227 231 235 239 241 246 249 252 255 258 258 256 253 251 254 257 259 261 262 264 267 269 272 275 277
174 172 172 169 169 171 175 173 175 178 181 191 202 203 205 211 213 212 212 216 219 222 225 224 221 221 223 228 232 235 238 242 245 248 250 252 251 249 246 246 249 255 258 261 264 266 269 270 271 274 278 281 283 283
176 173 175 171 168 164 155 153 154 156 149 143 151 164 178 189 195 202 207 210 211 212 213 215 216 217 221 225 227 230 233 234 235 236 242 247 248 251 253 255 258 261 263 266 269 271 274 277 279 281 282 283 283 284
177 174 175 172 168 162 153 142 133 125 130 141 140 139 140 143 144 149 154 162 171 182 195 207 216 219 221 225 231 236 239 242 243 240 238 237 239 247 255 255 257 262 268 272 274 277 279 282 285 286 288 289 290 290
180 178 177 177 174 169 167 162 155 137 126 125 126 136 142 141 137 138 138 144 145 147 142 142 144 160 188 200 210 215 220 226 231 232 235 242 248 250 255 261 267 274 280 285 289 292 295 296 296 296 295 294 294 293
186 185 182 182 179 176 175 175 172 169 160 152 144 141 134 131 137 139 149 157 162 168 165 156 151 150 150 151 157 167 180 194 208 218 229 241 253 266 276 281 285 288 292 294 296 297 297 296 295 294 293 292 292 292
188 191 189 187 187 189 190 191 189 186 183 180 175 172 176 170 159 150 150 146 143 144 149 155 157 158 160 161 168 187 210 235 253 265 272 279 282 284 285 288 289 289 291 293 294 294 294 294 295 296 296 297 298 299
192 194 193 192 195 197 201 204 208 209 206 203 203 204 210 216 212 199 200 195 188 191 201 211 222 240 258 266 266 269 270 270 272 274 277 279 280 281 284 287 290 292 293 295 297 298 299 299 299 300 300 301 300 301
196 197 197 200 202 204 206 211 213 214 213 209 208 214 220 223 224 228 228 232 233 236 241 248 249 248 249 250 256 260 264 267 270 271 273 276 280 285 289 292 295 297 300 301 302 302 302 301 302 302 302 304 305 304
200 200 200 203 206 209 210 212 213 217 218 215 214 216 216 214 217 220 220 227 234 238 243 246 250 251 250 250 256 264 267 269 273 276 277 279 284 289 295 299 303 305 305 304 305 304 304 304 304 304 306 307 307 307
198 197 199 205 208 209 210 212 211 212 215 215 214 210 207 210 214 217 220 226 231 235 239 241 244 246 248 253 257 261 266 270 270 269 274 285 293 298 300 302 303 305 306 307 306 306 307 305 306 307 309 309 307 308
196 196 198 201 203 205 204 203 206 207 208 207 206 204 202 200 200 207 217 224 229 234 241 246 249 251 253 261 269 274 279 278 275 278 284 292 296 301 304 305 305 307 310 311 311 312 310 308 308 310 311 310 311 311
192 193 196 197 200 202 198 195 194 196 199 199 202 206 207 206 211 216 222 234 241 246 252 255 254 256 262 271 277 280 281 277 276 282 291 297 302 306 308 309 311 312 313 312 312 311 310 311 314 314 313 313 313 312
194 194 192 191 193 197 198 193 191 192 195 205 214 217 217 219 222 227 231 237 244 251 257 261 263 264 267 273 277 277 275 274 280 292 299 303 305 307 308 310 311 313 314 313 313 314 315 316 315 316 316 314 313 311
199 199 198 196 194 195 197 199 203 205 207 210 211 213 218 220 225 231 236 241 247 251 253 257 260 265 272 276 275 275 273 280 292 300 305 308 309 311 311 312 314 316 316 316 316 317 318 318 319 319 318 318 317 315